Location: Antioch Baptist Church
(32.6696°N, 85.7327°W)
Time: 21:14:42
(UTC+00:00)

Sich 1 Rocket - Pass Details

Date: 14 July 2020
Orbit: 615 x 653 km, 82.5° (Epoch: 13 August)

Event Time Altitude Azimuth Distance (km) Brightness Sun altitude
Exits shadow 09:45:04 14° 209° (SSW) 1,807 5.4 -11.8°
Maximum altitude 09:48:46 45° 279° (W) 887 4.0 -11.1°
Drops below altitude 10° 09:53:07 10° 352° (N) 2,039 6.6 -10.4°
Sets 09:55:27 0° 359° (N) 2,945 7.5 -10.0°
